Comanche, TX

11:29 AM CST on February 23, 2018 (GMT -0600)
Comanche

Weather History for KMKN - March, 2014

Change the Weather History Date:

Sunday, March 2, 2014

  Actual Average (KSEP) Record (KSEP)
Temperature  
Mean Temperature 43 °F -  
Max Temperature 69 °F 70 °F 86 °F (1983)
Min Temperature 17 °F 41 °F 11 °F (1980)
Degree Days  
Heating Degree Days 22    
Moisture  
Dew Point 25 °F    
Average Humidity 89    
Maximum Humidity 99    
Minimum Humidity 68    
Precipitation  
Precipitation 0.00 in - - ()
Sea Level Pressure  
Sea Level Pressure 30.15 in    
Wind  
Wind Speed 17 mph (North)    
Max Wind Speed 29 mph    
Max Gust Speed 34 mph    
Visibility 8 miles    
Events Rain , Snow    
Averages and records for this station are not official NWS values.
T = Trace of Precipitation, MM = Missing Value Source: NWS Daily Summary

Daily Weather History Graph

Daily Weather History Graph

Search for Another Location

Airport or City:

Trip Planner

Search our weather history database for the weather conditions in past years. The results will help you decide how hot, cold, wet, or windy it might be!

Date:

Astronomy

Mar. 02, 2014 Rise Set
Actual Time 7:00 AM CST 6:33 PM CST
Civil Twilight 6:35 AM CST 6:57 PM CST
Nautical Twilight 6:07 AM CST 7:25 PM CST
Astronomical Twilight 5:39 AM CST 7:54 PM CST
Moon 7:40 AM CST (3/2) 8:21 PM CST (3/2)
Length of Visible Light 12h 21m
Length of Day
11h 32m
Waxing Crescent, 3% of the Moon is Illuminated
Mar 2
Waxing Crescent
Mar 8
First Quarter
Mar 16
Full
Mar 23
Last Quarter
Mar 30
New

Hourly Weather History & Observations

Time (CST) Temp. Windchill Dew Point Humidity Pressure Visibility Wind Dir Wind Speed Gust Speed Precip Events Conditions
12:15 AM 69.6 °F - 60.8 °F 73% 29.92 in 10.0 mi South 12.7 mph 17.3 mph N/A   Mostly Cloudy
12:35 AM 69.8 °F - 60.8 °F 73% 29.94 in 10.0 mi South 6.9 mph - N/A   Mostly Cloudy
12:55 AM 68.5 °F - 60.6 °F 76% 29.94 in 10.0 mi South 3.5 mph - N/A   Mostly Cloudy
1:15 AM 56.5 °F - 46.2 °F 68% 29.97 in 10.0 mi NNW 15.0 mph 21.9 mph N/A   Overcast
1:35 AM 51.1 °F - 44.6 °F 78% 29.99 in 10.0 mi NNW 18.4 mph 25.3 mph N/A   Overcast
1:55 AM 49.1 °F - 43.9 °F 82% 29.99 in 10.0 mi NNW 16.1 mph - N/A   Overcast
2:15 AM 48.0 °F - 42.8 °F 82% 30.00 in 10.0 mi North 19.6 mph - N/A   Overcast
2:40 AM 44.1 °F 35.7 °F 39.4 °F 84% 30.01 in 7.0 mi NNW 20.7 mph 26.5 mph N/A   Overcast
2:55 AM 41.4 °F 32.1 °F 38.1 °F 88% 30.01 in 7.0 mi North 20.7 mph 27.6 mph N/A   Overcast
3:15 AM 38.8 °F 29.1 °F 36.9 °F 93% 30.02 in 7.0 mi NNW 19.6 mph 26.5 mph N/A   Overcast
3:35 AM 36.9 °F 25.6 °F 35.1 °F 93% 30.02 in 7.0 mi NNW 23.0 mph 31.1 mph N/A   Overcast
3:55 AM 35.6 °F 25.2 °F 34.2 °F 94% 30.04 in 7.0 mi NNW 18.4 mph 25.3 mph N/A   Overcast
4:15 AM 34.3 °F 22.6 °F 33.3 °F 96% 30.04 in 7.0 mi North 21.9 mph 27.6 mph N/A   Overcast
4:35 AM 33.4 °F 21.4 °F 32.4 °F 96% 30.04 in 10.0 mi North 21.9 mph 26.5 mph N/A   Overcast
4:55 AM 32.0 °F 19.5 °F 31.6 °F 99% 30.05 in 7.0 mi North 21.9 mph 27.6 mph N/A   Overcast
5:15 AM 31.5 °F 19.8 °F 30.6 °F 96% 30.06 in 10.0 mi North 18.4 mph 23.0 mph N/A   Overcast
5:35 AM 30.9 °F 18.7 °F 30.2 °F 97% 30.07 in 10.0 mi North 19.6 mph 24.2 mph N/A   Overcast
5:55 AM 29.7 °F 17.1 °F 28.9 °F 97% 30.08 in 10.0 mi North 19.6 mph - N/A   Overcast
6:15 AM 29.3 °F 16.6 °F 28.4 °F 96% 30.08 in 10.0 mi North 19.6 mph 26.5 mph N/A   Overcast
6:35 AM 28.9 °F 16.9 °F 28.0 °F 96% 30.10 in 10.0 mi North 17.3 mph 28.8 mph N/A   Overcast
6:55 AM 28.8 °F 15.5 °F 27.9 °F 96% 30.10 in 10.0 mi North 20.7 mph 27.6 mph N/A   Overcast
7:15 AM 28.4 °F 15.1 °F 28.0 °F 99% 30.10 in 5.0 mi North 20.7 mph 25.3 mph N/A   Overcast
7:35 AM 28.0 °F 14.6 °F 27.5 °F 98% 30.11 in 5.0 mi North 20.7 mph - N/A   Overcast
7:55 AM 27.5 °F 14.6 °F 27.1 °F 99% 30.12 in 5.0 mi North 18.4 mph 24.2 mph N/A   Overcast
8:15 AM 27.5 °F 15.0 °F 27.0 °F 98% 30.12 in 7.0 mi North 17.3 mph 24.2 mph N/A   Overcast
8:35 AM 27.0 °F 13.2 °F 26.4 °F 98% 30.13 in 5.0 mi North 20.7 mph 26.5 mph N/A   Overcast
8:55 AM 26.6 °F 13.1 °F 26.2 °F 99% 30.14 in 5.0 mi North 19.6 mph 24.2 mph N/A   Overcast
9:15 AM 26.4 °F 12.8 °F 26.1 °F 99% 30.14 in 4.0 mi North 19.6 mph 26.5 mph N/A Rain Light Freezing Rain
9:35 AM 26.2 °F 13.8 °F 25.7 °F 98% 30.14 in 5.0 mi North 16.1 mph 21.9 mph N/A Rain Light Freezing Rain
9:55 AM 25.5 °F 12.0 °F 25.2 °F 99% 30.14 in 5.0 mi North 18.4 mph 23.0 mph N/A   Overcast
10:15 AM 24.6 °F 10.9 °F 24.3 °F 99% 30.15 in 7.0 mi North 18.4 mph - N/A   Overcast
10:35 AM 24.3 °F 9.6 °F 23.9 °F 99% 30.16 in 10.0 mi North 20.7 mph 25.3 mph N/A   Overcast
10:55 AM 23.4 °F 8.8 °F 23.0 °F 99% 30.16 in 2.5 mi North 19.6 mph 23.0 mph N/A   Overcast
11:15 AM 23.2 °F 8.6 °F 22.8 °F 99% 30.17 in 4.0 mi North 19.6 mph 24.2 mph N/A   Overcast
11:35 AM 23.5 °F 9.0 °F 23.0 °F 98% 30.16 in 5.0 mi North 19.6 mph 23.0 mph N/A   Overcast
11:55 AM 22.6 °F 7.5 °F 21.9 °F 97% 30.15 in 3.0 mi North 20.7 mph 25.3 mph N/A   Overcast
12:15 PM 22.8 °F 7.7 °F 22.1 °F 97% 30.16 in 3.0 mi North 20.7 mph 25.3 mph N/A   Overcast
12:35 PM 22.6 °F 9.6 °F 22.1 °F 98% 30.16 in 3.0 mi NNW 15.0 mph 26.5 mph N/A   Overcast
12:55 PM 22.3 °F 8.2 °F 21.7 °F 98% 30.15 in 2.5 mi North 17.3 mph 24.2 mph N/A   Overcast
1:20 PM 21.9 °F 5.5 °F 21.2 °F 97% 30.16 in 1.8 mi NNW 24.2 mph 28.8 mph N/A Snow Light Snow
1:35 PM 21.9 °F 7.8 °F 21.0 °F 96% 30.16 in 2.0 mi NNW 17.3 mph 31.1 mph N/A Snow Light Snow
1:55 PM 21.0 °F 4.3 °F 20.1 °F 96% 30.17 in 4.0 mi NNW 24.2 mph 31.1 mph N/A   Overcast
2:15 PM 21.2 °F 6.4 °F 19.4 °F 93% 30.17 in 2.5 mi NNW 18.4 mph 29.9 mph N/A   Overcast
2:35 PM 20.8 °F 2.8 °F 17.8 °F 88% 30.18 in 7.0 mi NNW 28.8 mph 34.5 mph N/A   Overcast
2:55 PM 20.3 °F 4.0 °F 18.0 °F 91% 30.18 in 10.0 mi NNW 21.9 mph 34.5 mph N/A   Overcast
3:15 PM 20.1 °F 3.4 °F 16.7 °F 87% 30.18 in 10.0 mi NNW 23.0 mph 33.4 mph N/A   Overcast
3:35 PM 20.3 °F 4.0 °F 16.7 °F 86% 30.19 in 7.0 mi NNW 21.9 mph 33.4 mph N/A   Overcast
3:55 PM 20.7 °F 6.6 °F 17.4 °F 87% 30.18 in 5.0 mi NNW 16.1 mph 32.2 mph N/A   Overcast
4:15 PM 20.3 °F 6.6 °F 16.9 °F 87% 30.16 in 10.0 mi NNW 15.0 mph - N/A   Overcast
4:35 PM 22.3 °F 8.2 °F 18.7 °F 86% 30.16 in 10.0 mi North 17.3 mph 23.0 mph N/A   Overcast
4:55 PM 23.0 °F 11.1 °F 18.9 °F 84% 30.14 in 10.0 mi North 12.7 mph - N/A   Mostly Cloudy
5:15 PM 24.3 °F 12.7 °F 19.6 °F 82% 30.14 in 10.0 mi North 12.7 mph 19.6 mph N/A   Scattered Clouds
5:35 PM 23.9 °F 10.3 °F 19.0 °F 82% 30.16 in 10.0 mi North 17.3 mph - N/A   Mostly Cloudy
5:55 PM 23.9 °F 11.7 °F 19.4 °F 83% 30.15 in 10.0 mi North 13.8 mph - N/A   Overcast
6:15 PM 23.5 °F 9.0 °F 18.9 °F 82% 30.20 in 10.0 mi North 19.6 mph 26.5 mph N/A   Overcast
6:35 PM 22.6 °F 7.9 °F 18.5 °F 84% 30.21 in 10.0 mi North 19.6 mph 25.3 mph N/A   Overcast
6:55 PM 21.9 °F 6.5 °F 18.0 °F 85% 30.23 in 10.0 mi North 20.7 mph 26.5 mph N/A   Overcast
7:15 PM 21.4 °F 4.7 °F 17.6 °F 85% 30.24 in 10.0 mi NNW 24.2 mph 28.8 mph N/A   Overcast
7:35 PM 20.8 °F 4.4 °F 16.9 °F 85% 30.24 in 10.0 mi North 23.0 mph 26.5 mph N/A   Overcast
7:55 PM 20.3 °F 4.4 °F 16.5 °F 85% 30.25 in 10.0 mi North 20.7 mph 33.4 mph N/A   Overcast
8:15 PM 19.9 °F 4.3 °F 16.0 °F 85% 30.27 in 10.0 mi NNW 19.6 mph 27.6 mph N/A   Overcast
8:35 PM 19.6 °F 3.1 °F 14.9 °F 82% 30.29 in 10.0 mi North 21.9 mph 29.9 mph N/A   Overcast
8:55 PM 19.9 °F 3.5 °F 15.4 °F 83% 30.29 in 10.0 mi North 21.9 mph - N/A   Overcast
9:15 PM 19.4 °F 3.6 °F 14.9 °F 83% 30.30 in 10.0 mi NNW 19.6 mph 28.8 mph N/A   Overcast
9:35 PM 19.2 °F 2.6 °F 14.0 °F 80% 30.31 in 10.0 mi North 21.9 mph 29.9 mph N/A   Overcast
9:55 PM 19.0 °F 4.5 °F 14.0 °F 81% 30.31 in 10.0 mi NNW 16.1 mph - N/A   Overcast
10:15 PM 18.5 °F 1.6 °F 12.9 °F 79% 30.31 in 10.0 mi North 21.9 mph 27.6 mph N/A   Overcast
10:35 PM 18.3 °F 2.6 °F 12.2 °F 77% 30.32 in 10.0 mi North 18.4 mph 25.3 mph N/A   Overcast
10:55 PM 18.1 °F 2.4 °F 12.7 °F 79% 30.32 in 10.0 mi North 18.4 mph 28.8 mph N/A   Overcast
11:15 PM 17.8 °F 1.5 °F 12.0 °F 78% 30.33 in 10.0 mi North 19.6 mph 28.8 mph N/A   Overcast
11:35 PM 17.2 °F -0.0 °F 11.8 °F 79% 30.34 in 10.0 mi North 21.9 mph 28.8 mph N/A   Overcast
11:55 PM 17.1 °F 1.5 °F 12.0 °F 81% 30.35 in 10.0 mi North 17.3 mph 31.1 mph N/A   Overcast